DELTA 1 DEB, 10832

Orbit data source: Space-Track

DELTA 1 DEB, 10832 is space debris in SSO originally from a launch on Thu, 29 Jul 1976 UTC launched from the Air Force Western Test Range (AFWTR). Debris objects in space refer to the collection of defunct objects orbiting the Earth. Examples of debris include non-operational satellites, rocket bodies, and fragments generated from explosions, collisions, or faulty payload assembly.

Loading next visibility...
Identifier
10832, 1976-077CC
Orbit
SSO
Country
Flag of USUS
Related business
Manufacturer
Unknown
Mission
Spacecraft
Bus & Motor
Unknown
Mass
Unknown
Launch date (UTC)
1976-07-29 (50 years ago)
Launch vehicle
Unknown
Launch site
Air Force Western Test Range (AFWTR)
Object type
Payload
Rocket body
Debris
Shape & HBR
Unknown shape, 0.1 m
Radar Cross Section
Medium (>0.1 m² and <1 m²)

Expand to show TLE details & history
Last TLE update: 18 hours ago

TLE from 18 hours ago
0 DELTA 1 DEB
1 10832U 76077CC  26255.70832184 -.00000029  00000-0  13148-3 0  9996
2 10832 102.2776 178.7295 0120962  31.6639  38.9634 12.20123624232348
Epoch: 2026-09-12T16:59Z
TLE epoch observation values (Epoch: 2026-09-12T16:59:59.006Z)
Latitude
68.00297°
Longitude
-100.39776°
Altitude
1,529.075 km
Speed
7.141 km/s
True Right ascension
09h 45m 14s
True Declination
67° 53' 42"
Sunlit
Object was in daylight at epoch
Visualization orbit readout
Latitude
Unknown
Longitude
Unknown
Altitude
Unknown
Speed
Unknown
Apparent Right ascension
Unknown
Apparent Declination
Unknown
Sunlit
N/A
Visualization observer readout
Local Sidereal Time
03:10:44
Azimuth
Unknown
Elevation
Unknown
Doppler factor
Unknown
Orbital elements
Apogee altitude
1,685.999 km
Perigee altitude
1,493.24 km
Semi-major axis
7,967.757 km
Eccentricity
0.0121
Inclination
102.2776°
RAAN
178.7295°
Arg. of periapsis
31.6639°
True anomaly
39.84536°
Mean anomaly
38.9634°
Eccentric anomaly
39.40334°
Mean motion
3.05168 °/min
Orbital period
117.97 mins
BSTAR
0.00013148
Loading maneuver chart data...
Computing Atmospheric mass density...
Loading historical data...
Loading historical data...
Loading historical data...
Loading historical data...
Loading historical data...
Loading historical data...
Loading historical data...

Documentation

Showing up to 5 results
|